Orbital Elements at Epoch 2459200.5 (2020-Dec-17.0) TDB
Reference: JPL 16 (heliocentric ecliptic J2000)
Element | Value | Uncertainty (1-sigma) | Units |
e | .02840069568385 | 7.4947e-08 | |
a | 2.866328507997881 | 2.4683e-08 | au |
q | 2.784922784312289 | 2.2791e-07 | au |
i | 6.891033710108721 | 1.3165e-05 | deg |
node | 331.8092157041013 | 4.6549e-05 | deg |
peri | 128.1459289527877 | 0.00025571 | deg |
M | 279.652605548601 | 0.00024916 | deg |
tp | 2459596.100351282192 (2022-Jan-16.60035128) | 0.0012259 | TDB |
period | 1772.504602470149 4.85 | 2.2895e-05 6.268e-08 | d yr |
n | .2031024345427971 | 2.6235e-09 | deg/d |
Q | 2.947734231683472 | 2.5384e-08 | au |
|
| | Orbit Determination Parameters
Additional Information
|